1521108000.82,19309,11.38,72478.0,1.69,0.87,0.95,0,*72
1521108002.04,19310,11.38,72472.5,1.69,0.87,0.87,0,*79
1521108003.26,19311,11.38,72478.0,1.69,0.87,0.95,0,*7B
1521108004.47,19312,11.38,72476.0,1.69,0.95,0.87,0,*78
1521108005.69,19313,11.38,72478.0,1.69,0.87,0.87,0,*7A
1521108006.92,19314,11.38,72476.8,1.69,0.87,0.87,0,*7D
1521108008.16,19315,11.38,72476.5,1.67,0.83,0.91,0,*71
1521108009.38,19316,11.38,72478.8,1.69,0.87,0.87,0,*7F
1521108010.6,19317,11.38,72476.8,1.69,0.95,0.83,0,*79
1521108011.81,19318,11.38,72480.0,1.69,0.95,0.95,0,*71
1521108013.02,19319,11.38,72472.8,1.69,0.95,0.95,0,*70
1521108014.26,19320,11.38,72480.5,1.71,0.87,0.95,0,*70
1521108015.51,19321,11.38,72474.8,1.71,0.87,0.95,0,*71
1521108016.75,19322,11.38,72476.3,1.71,0.95,0.87,0,*72
1521108017.99,19323,11.38,72474.3,1.71,0.87,0.95,0,*73
1521108019.23,19324,11.38,72476.0,1.71,0.87,0.95,0,*74
1521108020.48,19325,11.38,72478.5,1.71,0.87,0.87,0,*76
1521108021.71,19326,11.38,72480.0,1.73,0.97,0.87,0,*76
1521108022.93,19327,11.38,72478.8,1.69,0.87,0.87,0,*7D
1521108024.15,19328,11.38,72476.3,1.69,0.87,0.87,0,*72
1521108025.36,19329,11.38,72478.3,1.69,0.87,0.95,0,*70
1521108026.6,19330,11.38,72478.3,1.71,0.95,0.95,0,*72
1521108027.85,19331,11.38,72476.5,1.71,0.87,0.87,0,*73
1521108029.09,19332,11.38,72478.5,1.71,0.87,0.95,0,*73
1521108030.34,19333,11.38,72478.8,1.71,0.95,0.87,0,*72
1521108031.58,19334,11.38,72476.0,1.71,0.87,0.95,0,*75
1521108032.82,19335,11.38,72472.0,1.71,0.95,0.87,0,*74
1521108034.07,19336,11.38,72476.8,1.71,0.87,0.87,0,*74
1521108035.31,19337,11.38,72476.0,1.71,0.95,0.95,0,*75
1521108036.55,19338,11.38,72478.3,1.71,0.95,0.87,0,*79
1521108037.79,19339,11.38,72478.8,1.71,0.95,0.95,0,*7B
1521108039.04,19340,11.38,72478.0,1.71,0.87,0.87,0,*75
1521108040.28,19341,11.38,72478.5,1.71,0.87,0.95,0,*77
1521108041.53,19342,11.38,72478.0,1.71,0.87,0.87,0,*77
1521108042.76,19343,11.38,72480.5,1.73,0.97,0.91,0,*72
1521108044.0,19344,11.38,72482.3,1.71,0.83,0.95,0,*76
1521108045.23,19345,11.38,72478.8,1.71,0.95,0.95,0,*70
1521108046.43,19346,11.38,72480.3,1.73,0.97,0.97,0,*71
1521108047.62,19347,11.38,72482.3,1.73,0.97,0.97,0,*70
1521108048.85,19348,11.38,72482.8,1.73,0.97,0.91,0,*79
1521108050.09,19349,11.38,72480.5,1.71,0.87,0.95,0,*7F
1521108051.28,19350,11.38,72480.8,1.73,0.97,0.97,0,*76
1521108052.47,19351,11.38,72480.3,1.73,0.97,0.97,0,*77
1521108053.73,19352,11.38,72476.8,1.73,0.91,0.91,0,*74
1521108054.98,19353,11.38,72478.5,1.73,0.91,0.91,0,*75
1521108056.23,19354,11.38,72482.0,1.71,0.95,0.87,0,*73
1521108057.45,19355,11.38,72480.3,1.73,0.97,0.91,0,*75
1521108058.67,19356,11.38,72480.5,1.73,0.91,0.97,0,*76
1521108059.91,19357,11.38,72478.8,1.71,0.95,0.95,0,*73
1521108061.1,19358,11.38,72478.0,1.73,0.97,0.97,0,*7E
1521108062.35,19359,11.38,72476.8,1.71,0.87,0.87,0,*7D
1521108063.61,19360,11.38,72480.3,1.73,0.91,0.91,0,*75
1521108064.83,19361,11.38,72476.5,1.73,0.97,0.91,0,*72
1521108066.09,19362,11.38,72474.0,1.73,0.91,0.91,0,*77
1521108067.34,19363,11.38,72478.8,1.71,0.87,0.91,0,*73
1521108068.56,19364,11.38,72474.0,1.73,0.91,0.97,0,*77
1521108069.78,19365,11.38,72476.3,1.73,0.97,0.91,0,*76
1521108071.03,19366,11.38,72478.8,1.71,0.87,0.87,0,*71
1521108072.25,19367,11.38,72476.0,1.73,0.91,0.97,0,*74
1521108073.51,19368,11.38,72476.3,1.73,0.91,0.91,0,*7D
1521108074.76,19369,11.38,72476.0,1.73,0.91,0.91,0,*7C
1521108076.01,19370,11.38,72476.3,1.73,0.91,0.91,0,*74
1521108077.27,19371,11.38,72476.0,1.73,0.91,0.91,0,*75
1521108078.46,19372,11.38,72478.8,1.73,0.97,0.97,0,*76
1521108079.65,19373,11.38,72476.5,1.73,0.97,0.97,0,*77
1521108080.85,19374,11.38,72478.8,1.73,0.97,0.97,0,*70
1521108082.07,19375,11.38,72476.8,1.73,0.97,0.91,0,*77
1521108083.32,19376,11.38,72480.5,1.71,0.95,0.87,0,*73
1521108084.54,19377,11.38,72476.0,1.73,0.91,0.97,0,*75
1521108085.78,19378,11.38,72476.0,1.71,0.87,0.95,0,*7D
1521108086.97,19379,11.38,72478.5,1.73,0.97,0.97,0,*7D
1521108088.23,19380,11.38,72476.3,1.73,0.91,0.91,0,*7B
1521108089.42,19381,11.38,72480.0,1.73,0.97,0.97,0,*7A
1521108090.62,19382,11.38,72476.5,1.75,0.91,0.97,0,*79
1521108091.85,19383,11.38,72478.8,1.75,0.91,0.91,0,*7E
1521108093.05,19384,11.38,72478.5,1.75,0.91,0.97,0,*7F
1521108094.28,19385,11.38,72476.3,1.77,1.01,0.95,0,*46
1521108095.45,19386,11.38,72476.8,1.75,0.97,0.97,0,*7B
1521108096.65,19387,11.38,72478.3,1.75,0.97,0.91,0,*7C
1521108097.89,19388,11.38,72476.5,1.75,0.91,0.91,0,*75
1521108099.12,19389,11.38,72478.3,1.75,0.91,0.91,0,*74
1521108100.29,19390,11.44,72484.3,1.75,0.97,0.97,0,*7C
1521108101.5,19391,11.38,72480.8,1.75,0.97,0.91,0,*7B
1521108102.73,19392,11.38,72478.8,1.75,0.91,0.91,0,*7E
1521108103.93,19393,11.38,72478.8,1.75,0.91,0.97,0,*79
1521108105.13,19394,11.38,72476.0,1.75,0.91,0.97,0,*7E
1521108106.36,19395,11.38,72476.8,1.77,0.95,1.01,0,*47
1521108107.59,19396,11.38,72476.0,1.75,0.91,0.91,0,*7A
1521108108.79,19397,11.38,72480.8,1.75,0.91,0.97,0,*7D
1521108110.03,19398,11.38,72476.0,1.77,0.95,0.95,0,*76
1521108111.23,19399,11.38,72480.3,1.75,0.91,0.97,0,*73
1521108112.4,19400,11.38,72478.8,1.75,0.97,0.97,0,*72
1521108113.63,19401,11.38,72478.0,1.77,0.95,1.01,0,*4D
1521108114.85,19402,11.38,72476.0,1.77,0.95,1.01,0,*4E
1521108116.06,19403,11.38,72480.5,1.75,0.97,0.91,0,*77
1521108117.26,19404,11.38,72476.5,1.75,0.91,0.97,0,*70
1521108118.51,19405,11.38,72478.3,1.77,0.95,0.91,0,*71
1521108119.73,19406,11.38,72480.0,1.77,1.01,0.95,0,*4A
1521108120.94,19407,11.38,72480.8,1.77,1.01,1.01,0,*77
1521108122.15,19408,11.38,72480.0,1.75,0.97,0.91,0,*7C
1521108123.35,19409,11.38,72476.3,1.77,1.01,1.01,0,*79
1521108124.53,19410,11.38,72482.3,1.75,0.97,0.97,0,*73
1521108125.7,19411,11.38,72480.3,1.75,0.97,0.97,0,*72
1521108126.94,19412,11.38,72476.5,1.77,0.95,0.95,0,*73
1521108128.19,19413,11.38,72478.0,1.77,0.91,0.95,0,*76
1521108129.42,19414,11.38,72476.0,1.77,1.01,0.95,0,*49
1521108130.65,19415,11.38,72480.5,1.75,0.87,0.91,0,*71
1521108131.88,19416,11.38,72480.8,1.77,0.91,1.01,0,*4F
1521108133.13,19417,11.38,72482.5,1.77,0.91,0.95,0,*72
1521108134.38,19418,11.38,72482.5,1.77,0.91,0.95,0,*7D
1521108135.64,19419,11.38,72484.8,1.77,0.91,0.91,0,*78
1521108136.9,19420,11.38,72482.5,1.77,0.91,0.91,0,*72
1521108138.15,19421,11.38,72480.3,1.77,0.83,0.91,0,*70
1521108139.4,19422,11.38,72480.8,1.77,0.83,0.91,0,*73
1521108140.63,19423,11.38,72478.5,1.75,0.79,0.79,0,*73
1521108141.88,19424,11.38,72482.8,1.77,0.83,0.91,0,*75
1521108143.13,19425,11.38,72480.8,1.77,0.83,0.91,0,*74
1521108144.39,19426,11.38,72480.5,1.77,0.83,0.91,0,*77
1521108145.64,19427,11.38,72480.8,1.77,0.83,0.91,0,*76
1521108146.86,19428,11.38,72476.5,1.75,0.79,0.79,0,*78
1521108148.11,19429,11.38,72478.8,1.77,0.79,0.71,0,*73
1521108149.36,19430,11.38,72482.0,1.77,0.79,0.71,0,*7B
1521108150.61,19431,11.38,72480.3,1.77,0.79,0.79,0,*72
1521108151.83,19432,11.38,72482.8,1.75,0.67,0.75,0,*70
1521108153.08,19433,11.38,72480.0,1.77,0.79,0.71,0,*78
1521108154.32,19434,11.38,72480.8,1.77,0.75,0.67,0,*74
1521108155.53,19435,11.38,72478.8,1.75,0.67,0.75,0,*77
1521108156.75,19436,11.38,72480.3,1.75,0.75,0.67,0,*74
1521108157.96,19437,11.38,72482.5,1.75,0.75,0.67,0,*75
1521108159.18,19438,11.38,72476.0,1.75,0.83,0.79,0,*7C
1521108160.43,19439,11.38,72482.8,1.77,0.83,0.83,0,*7A
1521108161.68,19440,11.38,72476.3,1.77,0.83,0.79,0,*71
1521108162.89,19441,11.38,72480.0,1.75,0.67,0.67,0,*77
1521108164.12,19442,11.38,72476.5,1.77,0.67,0.67,0,*76
1521108165.34,19443,11.38,72478.3,1.75,0.63,0.55,0,*70
1521108166.56,19444,11.38,72480.8,1.75,0.63,0.55,0,*77
1521108167.78,19445,11.38,72480.0,1.75,0.63,0.55,0,*76
1521108168.95,19446,11.38,72478.0,1.75,0.43,0.43,0,*70
1521108170.16,19447,11.38,72480.8,1.75,0.51,0.41,0,*70
1521108171.4,19448,11.38,72476.0,1.73,0.41,0.33,0,*7D
1521108172.63,19449,11.38,72480.5,1.71,0.37,0.29,0,*74
1521108173.87,19450,11.38,72476.0,1.73,0.41,0.41,0,*71
1521108175.11,19451,11.38,72476.3,1.71,0.37,0.29,0,*7D
1521108176.34,19452,11.38,72478.0,1.71,0.37,0.29,0,*7E
1521108177.58,19453,11.38,72478.5,1.71,0.37,0.37,0,*70
1521108178.82,19454,11.38,72478.0,1.71,0.37,0.29,0,*78
1521108180.06,19455,11.38,72478.8,1.71,0.37,0.37,0,*76
1521108181.3,19456,11.38,72476.3,1.71,0.37,0.37,0,*75
1521108182.53,19457,11.38,72480.5,1.71,0.37,0.41,0,*75
1521108183.77,19458,11.38,72478.8,1.71,0.41,0.41,0,*7B
1521108185.0,19459,11.38,72476.3,1.67,0.37,0.37,0,*7D
1521108186.2,19460,11.38,72476.5,1.67,0.43,0.33,0,*70
1521108187.41,19461,11.38,72476.3,1.69,0.41,0.41,0,*78
1521108188.62,19462,11.38,72478.0,1.67,0.43,0.37,0,*76
1521108189.85,19463,11.38,72482.0,1.67,0.37,0.33,0,*70
1521108191.06,19464,11.38,72476.0,1.67,0.37,0.43,0,*70
1521108192.27,19465,11.38,72476.5,1.67,0.43,0.33,0,*75
1521108193.45,19466,11.38,72478.5,1.67,0.43,0.43,0,*71
1521108194.66,19467,11.38,72476.8,1.67,0.43,0.37,0,*73
1521108195.84,19468,11.38,72476.8,1.69,0.43,0.37,0,*72
1521108197.02,19469,11.38,72476.8,1.65,0.37,0.43,0,*7F
1521108198.2,19470,11.38,72480.8,1.65,0.43,0.37,0,*77
1521108199.44,19471,11.38,72476.5,1.67,0.37,0.37,0,*77
1521108200.65,19472,11.38,72478.0,1.61,0.41,0.41,0,*72
1521108201.84,19473,11.38,72474.5,1.65,0.37,0.43,0,*74
1521108203.02,19474,11.38,72480.5,1.65,0.43,0.37,0,*73
1521108204.22,19475,11.38,72476.0,1.67,0.43,0.37,0,*70
1521108205.44,19476,11.38,72480.5,1.61,0.41,0.41,0,*76
1521108206.64,19477,11.38,72476.3,1.65,0.33,0.41,0,*76
1521108207.85,19478,11.38,72478.8,1.61,0.41,0.33,0,*7D
1521108209.07,19479,11.38,72482.0,1.61,0.41,0.41,0,*79
1521108210.31,19480,11.38,72480.3,1.59,0.37,0.37,0,*74
1521108211.49,19481,11.38,72482.0,1.65,0.41,0.43,0,*78
1521108212.68,19482,11.38,72482.5,1.61,0.43,0.41,0,*7F
1521108213.89,19483,11.38,72478.5,1.61,0.41,0.41,0,*7C
1521108215.07,19484,11.38,72478.8,1.61,0.43,0.41,0,*79
1521108216.29,19485,11.38,72480.3,1.61,0.41,0.41,0,*7A
1521108217.5,19486,11.38,72480.0,1.61,0.41,0.41,0,*79
1521108218.74,19487,11.38,72476.3,1.59,0.41,0.37,0,*72
1521108219.99,19488,11.38,72480.5,1.59,0.41,0.29,0,*72
1521108221.2,19489,11.38,72482.0,1.57,0.41,0.37,0,*72
1521108222.44,19490,11.38,72476.3,1.59,0.41,0.37,0,*74
1521108223.68,19491,11.38,72480.0,1.59,0.41,0.41,0,*74
1521108224.89,19492,11.38,72480.3,1.57,0.41,0.41,0,*79
1521108226.11,19493,11.38,72482.5,1.57,0.41,0.37,0,*79
1521108227.32,19494,11.38,72480.8,1.57,0.41,0.37,0,*7E
1521108228.54,19495,11.38,72480.5,1.57,0.47,0.47,0,*7E
1521108229.75,19496,11.38,72476.8,1.57,0.47,0.41,0,*7B
1521108230.99,19497,11.38,72478.5,1.59,0.41,0.41,0,*72
1521108232.2,19498,11.38,72482.3,1.57,0.41,0.41,0,*73
1521108233.41,19499,11.38,72482.0,1.57,0.41,0.37,0,*73
1521108234.62,19500,11.38,72480.5,1.57,0.41,0.41,0,*73
1521108235.87,19501,11.38,72482.8,1.55,0.37,0.37,0,*70
1521108237.11,19502,11.38,72480.5,1.59,0.47,0.47,0,*7F
1521108238.32,19503,11.38,72476.5,1.57,0.41,0.41,0,*70
1521108239.54,19504,11.38,72476.8,1.57,0.47,0.47,0,*77
1521108240.76,19505,11.38,72478.0,1.57,0.47,0.47,0,*76
1521108241.98,19506,11.38,72478.3,1.55,0.43,0.47,0,*73
1521108243.2,19507,11.38,72482.5,1.57,0.47,0.47,0,*74
1521108244.41,19508,11.38,72478.8,1.57,0.51,0.47,0,*7C
1521108245.63,19509,11.38,72478.3,1.57,0.47,0.51,0,*7D
1521108246.85,19510,11.38,72480.8,1.57,0.47,0.47,0,*72
1521108248.07,19511,11.38,72482.3,1.57,0.51,0.51,0,*73
1521108249.32,19512,11.38,72482.3,1.55,0.47,0.47,0,*72
1521108250.54,19513,11.38,72480.5,1.53,0.47,0.47,0,*75
1521108251.79,19514,11.38,72480.3,1.55,0.47,0.47,0,*74
1521108253.0,19515,11.38,72480.5,1.55,0.43,0.47,0,*71
1521108254.25,19516,11.38,72480.8,1.55,0.55,0.47,0,*75
1521108255.5,19517,11.38,72480.3,1.55,0.47,0.47,0,*77
1521108256.73,19518,11.38,72482.3,1.53,0.55,0.55,0,*7E
1521108257.98,19519,11.38,72480.3,1.55,0.47,0.47,0,*79
1521108259.23,19520,11.38,72482.8,1.55,0.47,0.55,0,*70
1521108260.47,19521,11.38,72482.3,1.55,0.47,0.47,0,*72
1521108261.73,19522,11.38,72482.5,1.55,0.55,0.47,0,*72
1521108262.98,19523,11.38,72480.5,1.55,0.47,0.47,0,*70
1521108264.22,19524,11.38,72482.0,1.55,0.47,0.47,0,*77
1521108265.45,19525,11.38,72480.5,1.53,0.47,0.47,0,*70
1521108266.69,19526,11.44,72484.3,1.55,0.47,0.55,0,*76
1521108267.95,19527,11.38,72480.0,1.55,0.55,0.55,0,*74
1521108269.2,19528,11.38,72482.5,1.55,0.55,0.55,0,*7B
1521108270.41,19529,11.38,72480.3,1.57,0.59,0.59,0,*78
1521108271.67,19530,11.38,72480.0,1.55,0.55,0.59,0,*7E
1521108272.91,19531,11.38,72480.5,1.55,0.59,0.55,0,*7F
1521108274.16,19532,11.38,72482.8,1.55,0.55,0.59,0,*7C
1521108275.41,19533,11.38,72480.5,1.55,0.59,0.59,0,*71
1521108276.66,19534,11.38,72482.8,1.55,0.59,0.59,0,*76
1521108277.89,19535,11.38,72480.5,1.55,0.67,0.71,0,*70
1521108279.14,19536,11.44,72486.3,1.55,0.71,0.71,0,*74
1521108280.38,19537,11.38,72482.3,1.55,0.71,0.79,0,*7D
1521108281.63,19538,11.38,72482.8,1.55,0.79,0.79,0,*7A
1521108282.88,19539,11.38,72482.3,1.55,0.79,0.79,0,*7B
1521108284.13,19540,11.38,72484.0,1.55,0.79,0.79,0,*75
1521108285.38,19541,11.38,72480.5,1.55,0.79,0.79,0,*74
1521108286.6,19542,11.38,72480.3,1.57,0.83,0.87,0,*71
1521108287.82,19543,11.38,72482.0,1.57,0.87,0.91,0,*73
1521108289.08,19544,11.38,72480.8,1.59,0.87,0.91,0,*7A
1521108290.24,19545,11.38,72480.3,1.57,0.97,0.97,0,*72
1521108291.42,19546,11.38,72480.8,1.57,0.97,1.01,0,*4F
1521108292.62,19547,11.38,72482.8,1.59,1.01,1.01,0,*7E
1521108293.86,19548,11.38,72480.8,1.61,1.13,1.13,0,*7A
1521108295.09,19549,11.38,72482.3,1.61,1.17,1.13,0,*7F
1521108296.33,19550,11.38,72482.0,1.61,1.13,1.17,0,*77
1521108297.56,19551,11.38,72482.3,1.65,1.21,1.21,0,*76
1521108298.79,19552,11.38,72480.8,1.65,1.17,1.17,0,*75
1521108300.02,19553,11.44,72486.0,1.65,1.17,1.17,0,*74
1521108301.22,19554,11.38,72480.8,1.65,1.05,1.09,0,*7F
1521108302.4,19555,11.38,72482.0,1.65,1.05,1.05,0,*72
1521108303.61,19556,11.38,72482.0,1.67,0.95,0.97,0,*71
1521108304.81,19557,11.38,72482.8,1.65,0.95,0.95,0,*70
1521108306.02,19558,11.38,72480.3,1.65,0.95,0.95,0,*7F
1521108307.23,19559,11.38,72482.0,1.65,0.95,0.95,0,*7E
1521108308.46,19560,11.38,72478.8,1.67,0.83,0.95,0,*71
1521108309.72,19561,11.38,72482.8,1.67,0.91,0.91,0,*77
1521108310.94,19562,11.38,72478.8,1.65,0.91,0.91,0,*76
1521108312.19,19563,11.38,72480.8,1.67,0.91,0.91,0,*75
1521108313.45,19564,11.38,72478.5,1.67,0.91,0.91,0,*72
1521108314.7,19565,11.38,72480.3,1.67,0.91,0.91,0,*73
1521108315.91,19566,11.38,72482.3,1.69,0.91,0.95,0,*7A
1521108317.13,19567,11.44,72484.3,1.69,0.95,0.95,0,*7F
1521108318.34,19568,11.38,72482.5,1.69,0.95,0.95,0,*70
1521108319.55,19569,11.38,72482.5,1.69,0.95,0.95,0,*71
1521108320.79,19570,11.38,72480.3,1.67,0.91,0.95,0,*73
1521108321.98,19571,11.38,72482.0,1.69,0.95,0.97,0,*7A
1521108323.21,19572,11.38,72480.8,1.67,0.95,0.95,0,*75
1521108324.38,19573,11.38,72482.0,1.69,0.97,1.01,0,*44
1521108325.56,19574,11.38,72480.8,1.69,0.97,1.01,0,*43
1521108326.73,19575,11.38,72480.5,1.69,1.01,1.01,0,*7C
1521108327.96,19576,11.38,72482.3,1.69,1.09,1.13,0,*74
1521108329.2,19577,11.38,72482.0,1.69,1.09,1.09,0,*7E
1521108330.45,19578,11.38,72482.8,1.73,1.17,1.13,0,*7E
1521108331.71,19579,11.38,72482.5,1.71,1.13,1.13,0,*79
1521108332.97,19580,11.44,72486.8,1.73,1.13,1.17,0,*79
1521108334.23,19581,11.38,72480.8,1.71,1.09,1.13,0,*75
1521108335.49,19582,11.38,72482.3,1.73,1.17,1.25,0,*7E
1521108336.75,19583,11.38,72482.3,1.71,1.13,1.21,0,*7D
1521108337.98,19584,11.38,72482.3,1.75,1.25,1.25,0,*7F
1521108339.23,19585,11.44,72484.3,1.73,1.25,1.29,0,*74
1521108340.49,19586,11.44,72484.3,1.73,1.25,1.25,0,*7B
1521108341.74,19587,11.38,72480.5,1.73,1.25,1.25,0,*7A
1521108342.97,19588,11.38,72480.3,1.75,1.17,1.17,0,*73
1521108344.21,19589,11.38,72480.5,1.75,1.13,1.13,0,*72
1521108345.45,19590,11.38,72480.0,1.75,1.13,1.13,0,*7A
1521108346.69,19591,11.44,72484.5,1.75,1.13,1.17,0,*7F
1521108347.9,19592,11.44,72484.3,1.75,1.09,1.05,0,*74
1521108349.08,19593,11.44,72484.3,1.75,1.05,1.05,0,*79
1521108350.35,19594,11.38,72482.3,1.77,1.09,1.09,0,*7C
1521108351.53,19595,11.44,72484.5,1.75,1.01,1.01,0,*7F
1521108352.71,19596,11.38,72480.3,1.75,1.01,1.01,0,*7C
1521108353.91,19597,11.38,72480.0,1.77,1.05,1.05,0,*7F
1521108355.1,19598,11.38,72482.0,1.75,1.05,1.05,0,*72
1521108356.3,19599,11.38,72480.3,1.77,1.01,1.05,0,*75
1521108357.49,19600,11.44,72484.3,1.79,1.01,1.05,0,*78
1521108358.7,19601,11.38,72482.0,1.79,1.05,1.09,0,*71
1521108359.9,19602,11.44,72484.0,1.75,1.05,1.13,0,*75
1521108361.14,19603,11.38,72482.0,1.77,1.05,1.17,0,*72
1521108362.4,19604,11.38,72482.0,1.77,1.09,1.17,0,*79
1521108363.66,19605,11.38,72482.8,1.77,1.09,1.09,0,*77
1521108364.9,19606,11.44,72484.8,1.79,1.09,1.09,0,*7A
1521108366.16,19607,11.44,72484.3,1.81,1.09,1.13,0,*77
1521108367.41,19608,11.38,72480.3,1.81,1.09,1.13,0,*78
1521108368.67,19609,11.38,72480.0,1.81,1.09,1.13,0,*79
1521108369.88,19610,11.38,72482.8,1.79,1.09,1.05,0,*71
1521108371.06,19611,11.38,72480.0,1.79,1.05,1.05,0,*7C
1521108372.32,19612,11.38,72480.5,1.81,1.09,1.13,0,*73
1521108373.55,19613,11.44,72484.3,1.81,1.09,1.05,0,*75
1521108374.75,19614,11.38,72480.3,1.81,1.05,1.05,0,*7E
1521108375.93,19615,11.38,72478.5,1.79,1.01,1.01,0,*78
1521108377.14,19616,11.38,72480.5,1.81,0.95,0.97,0,*7E
1521108378.36,19617,11.38,72482.0,1.79,0.95,0.95,0,*7A
1521108379.55,19618,11.38,72476.3,1.81,0.97,0.97,0,*72
1521108380.76,19619,11.38,72480.5,1.81,0.95,0.97,0,*71
1521108381.96,19620,11.44,72480.8,1.81,1.05,0.97,0,*43
1521108383.16,19621,11.44,72480.5,1.81,1.05,1.05,0,*78
1521108384.34,19622,11.44,72482.0,1.79,1.01,1.01,0,*7C
1521108385.54,19623,11.44,72480.5,1.81,1.05,1.05,0,*7A
1521108386.72,19624,11.44,72482.5,1.79,1.01,1.01,0,*7A
1521108387.91,19625,11.38,72482.3,1.81,0.97,0.97,0,*7C
1521108389.11,19626,11.44,72480.3,1.81,0.97,0.97,0,*7F
1521108390.34,19627,11.44,72482.3,1.79,0.91,0.91,0,*79
1521108391.58,19628,11.38,72478.0,1.81,0.95,0.95,0,*71
1521108392.82,19629,11.38,72480.0,1.81,0.95,0.87,0,*73
1521108394.03,19630,11.38,72480.0,1.81,0.95,0.97,0,*7A
1521108395.22,19631,11.44,72480.0,1.81,0.97,0.97,0,*79
1521108396.47,19632,11.38,72480.3,1.81,0.87,0.87,0,*7A
1521108397.7,19633,11.44,72482.8,1.79,0.91,0.91,0,*7C
1521108398.95,19634,11.38,72478.8,1.81,0.87,0.83,0,*78
1521108400.19,19635,11.44,72482.8,1.81,0.83,0.75,0,*74
1521108401.44,19636,11.38,72478.3,1.81,0.71,0.75,0,*7A
1521108402.68,19637,11.38,72480.0,1.81,0.71,0.75,0,*7B
1521108403.92,19638,11.38,72480.8,1.81,0.75,0.83,0,*79
1521108405.14,19639,11.44,72482.5,1.79,0.79,0.79,0,*76
1521108406.38,19640,11.44,72480.8,1.81,0.75,0.75,0,*7F
1521108407.62,19641,11.38,72478.3,1.81,0.83,0.75,0,*77
1521108408.84,19642,11.38,72476.8,1.79,0.71,0.67,0,*7D
1521108410.08,19643,11.44,72480.8,1.81,0.71,0.63,0,*7F
1521108411.3,19644,11.38,72480.8,1.79,0.71,0.71,0,*7C
1521108412.52,19645,11.44,72480.5,1.79,0.79,0.79,0,*7D
1521108413.77,19646,11.44,72482.5,1.77,0.83,0.91,0,*73
1521108415.0,19647,11.44,72480.5,1.79,0.91,0.95,0,*7B
1521108416.22,19648,11.38,72478.0,1.79,0.95,0.91,0,*74
1521108417.45,19649,11.44,72482.8,1.79,0.95,0.83,0,*76
1521108418.64,19650,11.44,72478.8,1.81,0.97,0.97,0,*7E
1521108419.83,19651,11.44,72480.5,1.81,0.97,0.97,0,*7F
1521108421.03,19652,11.44,72480.8,1.79,0.95,1.01,0,*47
1521108422.25,19653,11.44,72484.0,1.79,0.95,0.95,0,*7A
1521108423.47,19654,11.44,72482.0,1.79,0.95,0.91,0,*79
1521108424.69,19655,11.44,72480.0,1.79,0.95,0.95,0,*7C
1521108425.92,19656,11.44,72480.5,1.79,0.95,0.91,0,*7B
1521108427.13,19657,11.44,72482.3,1.79,0.95,0.95,0,*7E
1521108428.32,19658,11.44,72478.5,1.81,0.97,0.97,0,*76
1521108429.51,19659,11.44,72478.8,1.79,1.01,1.01,0,*70
1521108430.69,19660,11.44,72478.5,1.79,1.01,1.01,0,*7A
1521108431.89,19661,11.44,72478.8,1.81,1.05,1.05,0,*7C
1521108433.07,19662,11.44,72480.5,1.79,1.01,1.01,0,*78
1521108434.27,19663,11.44,72482.3,1.81,1.05,1.05,0,*7E
1521108435.5,19664,11.44,72482.8,1.81,1.05,1.09,0,*75
1521108436.76,19665,11.44,72480.3,1.81,1.09,1.09,0,*78
1521108438.02,19666,11.38,72480.0,1.81,1.09,1.09,0,*7B
1521108439.25,19667,11.38,72478.8,1.81,1.09,1.05,0,*76
1521108440.43,19668,11.44,72482.8,1.79,1.01,1.01,0,*72
1521108441.62,19669,11.38,72478.0,1.81,0.97,1.05,0,*4E
1521108442.83,19670,11.38,72478.8,1.81,1.05,1.05,0,*7C
1521108444.02,19671,11.44,72480.8,1.81,0.97,1.05,0,*47
1521108445.23,19672,11.44,72480.5,1.81,1.05,1.05,0,*7E
1521108446.42,19673,11.44,72480.3,1.81,0.97,0.97,0,*7F
1521108447.62,19674,11.38,72478.0,1.81,1.05,1.05,0,*78
1521108448.88,19675,11.44,72482.8,1.85,1.09,1.09,0,*7D
1521108450.08,19676,11.44,72482.5,1.83,1.01,1.09,0,*70
1521108451.32,19677,11.44,72482.8,1.83,1.09,1.09,0,*79
1521108452.55,19678,11.44,72482.0,1.83,1.09,1.09,0,*76
1521108453.81,19679,11.38,72478.0,1.85,1.09,1.09,0,*71
1521108455.07,19680,11.44,72484.0,1.89,1.17,1.17,0,*7B
1521108456.3,19681,11.44,72482.3,1.83,1.13,1.17,0,*74
1521108457.54,19682,11.44,72480.0,1.83,1.13,1.13,0,*73
1521108458.8,19683,11.44,72480.5,1.85,1.13,1.13,0,*74
1521108460.06,19684,11.44,72480.5,1.85,1.13,1.13,0,*73
1521108461.32,19685,11.44,72482.0,1.85,1.13,1.13,0,*72
1521108462.57,19686,11.44,72480.5,1.85,1.13,1.13,0,*71
1521108463.83,19687,11.44,72484.0,1.89,1.13,1.17,0,*78
1521108465.09,19688,11.44,72480.8,1.89,1.13,1.17,0,*77
1521108466.35,19689,11.44,72480.0,1.89,1.13,1.17,0,*76
1521108467.61,19690,11.38,72476.5,1.89,1.17,1.17,0,*7A
1521108468.87,19691,11.44,72480.0,1.89,1.21,1.17,0,*7E
1521108470.12,19692,11.44,72480.0,1.89,1.17,1.17,0,*78
1521108471.38,19693,11.44,72480.8,1.89,1.17,1.17,0,*79
1521108472.63,19694,11.38,72476.5,1.89,1.17,1.17,0,*7E
1521108473.87,19695,11.44,72482.0,1.91,1.17,1.17,0,*76
1521108475.11,19696,11.44,72476.0,1.91,1.17,1.17,0,*75
1521108476.34,19697,11.44,72480.5,1.91,1.13,1.13,0,*74
1521108477.58,19698,11.44,72480.8,1.89,1.13,1.05,0,*75
1521108478.79,19699,11.44,72480.3,1.91,1.13,1.05,0,*7D
1521108480.01,19700,11.44,72480.0,1.89,1.01,0.95,0,*4E
1521108481.24,19701,11.44,72482.3,1.91,0.91,0.91,0,*7A
1521108482.47,19702,11.44,72478.0,1.91,0.91,0.83,0,*7A
1521108483.72,19703,11.44,72480.0,1.89,0.91,0.83,0,*72
1521108484.96,19704,11.44,72476.0,1.89,0.95,0.83,0,*71
1521108486.16,19705,11.44,72482.0,1.91,0.95,1.01,0,*42
1521108487.34,19706,11.44,72482.0,1.91,1.01,1.01,0,*7D
1521108488.54,19707,11.44,72480.3,1.89,1.05,1.01,0,*71
1521108489.72,19708,11.44,72480.0,1.91,1.05,1.05,0,*73
1521108490.92,19709,11.44,72482.8,1.89,1.05,1.05,0,*7B
1521108492.14,19710,11.44,72482.8,1.91,1.13,1.05,0,*7D
1521108493.37,19711,11.44,72476.8,1.91,1.13,1.13,0,*7B
1521108494.6,19712,11.44,72480.0,1.89,1.05,1.13,0,*76
1521108495.78,19713,11.44,72480.0,1.91,1.05,1.01,0,*7D
1521108496.96,19714,11.44,72478.5,1.91,1.01,1.01,0,*7E
1521108498.16,19715,11.44,72480.8,1.91,0.95,1.01,0,*43
1521108499.38,19716,11.38,72476.5,1.91,0.95,0.91,0,*78
1521108500.59,19717,11.44,72476.8,1.93,0.97,1.05,0,*45
1521108501.76,19718,11.44,72478.0,1.91,1.01,1.01,0,*72
1521108502.96,19719,11.44,72478.0,1.91,1.01,0.95,0,*4F
1521108504.18,19720,11.44,72482.0,1.91,0.95,0.95,0,*79
1521108505.4,19721,11.44,72476.5,1.91,0.95,0.91,0,*7C
1521108506.63,19722,11.44,72478.8,1.91,0.91,0.83,0,*78
1521108507.86,19723,11.44,72476.0,1.91,0.83,0.83,0,*7A
1521108509.08,19724,11.44,72482.0,1.91,0.83,0.83,0,*7D
1521108510.3,19725,11.44,72480.8,1.91,0.83,0.79,0,*79
1521108511.52,19726,11.44,72478.5,1.91,0.83,0.83,0,*7F
1521108512.76,19727,11.44,72478.3,1.89,0.83,0.79,0,*72
1521108513.99,19728,11.44,72482.8,1.91,0.83,0.91,0,*72
1521108515.21,19729,11.44,72480.5,1.91,0.95,0.83,0,*77
1521108516.39,19730,11.44,72478.8,1.91,1.01,1.01,0,*78
1521108517.59,19731,11.44,72478.5,1.91,0.95,1.01,0,*45
1521108518.77,19732,11.44,72480.3,1.91,1.05,1.01,0,*7E
1521108520.0,19733,11.44,72480.0,1.89,0.95,0.95,0,*72
1521108521.18,19734,11.44,72482.8,1.91,1.01,1.01,0,*7C
1521108522.42,19735,11.44,72476.5,1.89,0.95,0.95,0,*74
1521108523.63,19736,11.44,72480.5,1.91,0.95,0.95,0,*7E
1521108524.88,19737,11.44,72478.0,1.89,0.91,0.95,0,*72
1521108526.11,19738,11.44,72476.0,1.91,0.91,0.83,0,*73
1521108527.34,19739,11.44,72476.3,1.91,0.91,0.83,0,*72
1521108528.56,19740,11.44,72478.8,1.91,0.91,0.83,0,*7C
1521108529.79,19741,11.44,72482.3,1.91,0.83,0.79,0,*7B
1521108531.03,19742,11.44,72480.5,1.89,0.79,0.83,0,*71
1521108532.27,19743,11.44,72478.0,1.89,0.71,0.79,0,*7D
1521108533.49,19744,11.44,72482.3,1.91,0.71,0.71,0,*7B
1521108534.71,19745,11.44,72478.3,1.91,0.79,0.79,0,*7A